Weather History for Kirksville, MO

Change the Weather History Date:

Thursday, February 7, 2013

  Actual Average Record
Temperature  
Mean Temperature 38 °F 28 °F  
Max Temperature 45 °F 37 °F 68 °F (2009)
Min Temperature 31 °F 19 °F -17 °F (2014)
Degree Days  
Heating Degree Days 27 37  
Month to date heating degree days 254 264  
Since 1 July heating degree days 3630 3811  
Cooling Degree Days 0 0  
Month to date cooling degree days 0 0  
Year to date cooling degree days 0 0  
Moisture  
Dew Point 35 °F    
Average Humidity 83    
Maximum Humidity 100    
Minimum Humidity 65    
Precipitation  
Precipitation 0.51 in 0.06 in 0.60 in (1933)
Month to date precipitation 0.62 0.38  
Year to date precipitation 2.72 1.65  
Sea Level Pressure  
Sea Level Pressure 29.98 in    
Wind  
Wind Speed 8 mph (NW)    
Max Wind Speed 18 mph    
Max Gust Speed 41 mph    
Visibility 4 miles    
Events Rain    
T = Trace of Precipitation, MM = Missing Value Source: NWS Daily Summary

Daily Weather History Graph

Daily Weather History Graph

Search for Another Location

Airport:

Trip Planner

Search our weather history database for the weather conditions in past years. The results will help you decide how hot, cold, wet, or windy it might be!

Date:

Astronomy

Feb. 07, 2013 Rise Set
Actual Time 7:12 AM CST 5:36 PM CST
Civil Twilight 6:44 AM CST 6:05 PM CST
Nautical Twilight 6:12 AM CST 6:37 PM CST
Astronomical Twilight 5:40 AM CST 7:08 PM CST
Moon 4:52 AM CST (2/7) 3:01 PM CST (2/7)
Length of Visible Light 11h 20m
Length of Day
10h 24m
Waning Crescent, 9% of the Moon is Illuminated
Feb 7
Waning Crescent
Feb 10
New
Feb 17
First Quarter
Feb 25
Full
Mar 4
Last Quarter

Hourly Weather History & Observations

Time (CST) Temp. Windchill Dew Point Humidity Pressure Visibility Wind Dir Wind Speed Gust Speed Precip Events Conditions
12:55 AM 41.0 °F 33.9 °F 30.9 °F 67% 29.94 in 10.0 mi South 12.7 mph - N/A   Clear
1:55 AM 44.1 °F 38.1 °F 33.1 °F 65% 29.93 in 10.0 mi South 11.5 mph 17.3 mph N/A   Clear
2:55 AM 42.1 °F 38.4 °F 33.1 °F 70% 29.96 in 10.0 mi SW 5.8 mph - N/A   Clear
3:55 AM 42.1 °F - 35.1 °F 76% 29.96 in 10.0 mi Calm Calm - N/A   Overcast
4:04 AM 42.8 °F - 35.6 °F 76% 29.93 in 10.0 mi Calm Calm - N/A   Overcast
4:55 AM 42.1 °F - 37.0 °F 82% 29.95 in 10.0 mi Calm Calm - 0.01 in Rain Light Rain
5:51 AM 39.2 °F 37.0 °F 37.4 °F 93% 29.93 in 7.0 mi SSE 3.5 mph - 0.01 in Rain Light Rain
5:55 AM 39.0 °F 36.8 °F 37.9 °F 96% 29.96 in 6.0 mi SE 3.5 mph - 0.01 in Rain Light Rain
6:17 AM 39.2 °F 35.0 °F 37.4 °F 93% 29.92 in 5.0 mi SE 5.8 mph - 0.01 in Rain Light Rain
6:47 AM 39.2 °F 34.2 °F 37.4 °F 93% 29.91 in 6.0 mi SE 6.9 mph - 0.01 in   Overcast
6:55 AM 39.0 °F 34.8 °F 37.9 °F 96% 29.94 in 6.0 mi SE 5.8 mph - 0.01 in   Overcast
7:18 AM 39.2 °F 34.2 °F 37.4 °F 93% 29.91 in 5.0 mi SE 6.9 mph - N/A   Overcast
7:55 AM 37.9 °F 32.7 °F 37.0 °F 97% 29.94 in 2.0 mi SE 6.9 mph - 0.02 in Rain Light Rain
8:20 AM 37.4 °F 32.1 °F 37.4 °F 100% 29.91 in 1.5 mi SSE 6.9 mph - 0.04 in Rain Rain
8:55 AM 37.9 °F 34.4 °F 37.9 °F 100% 29.94 in 1.2 mi SSE 4.6 mph - 0.14 in Rain Rain
9:55 AM 39.0 °F 35.7 °F 37.9 °F 96% 29.94 in 1.8 mi South 4.6 mph - 0.06 in Rain Light Rain
10:19 AM 37.4 °F 34.9 °F 37.4 °F 100% 29.90 in 1.0 mi SSE 3.5 mph - 0.09 in Rain Rain
10:55 AM 39.0 °F - 39.0 °F 100% 29.95 in 0.8 mi Calm Calm - 0.18 in Rain Rain
11:05 AM 39.2 °F - 39.2 °F 100% 29.92 in 1.2 mi Calm Calm - 0.03 in Rain Light Rain
11:15 AM 41.0 °F - 39.2 °F 93% 29.91 in 2.5 mi Calm Calm - 0.04 in Rain Light Rain
11:38 AM 41.0 °F - 41.0 °F 100% 29.91 in 3.0 mi Calm Calm - 0.06 in Rain Light Rain
11:55 AM 42.1 °F 40.2 °F 41.0 °F 96% 29.93 in 4.0 mi West 3.5 mph - 0.06 in Rain Light Rain
12:55 PM 43.0 °F - 42.1 °F 97% 29.92 in 6.0 mi North - - 0.02 in   Overcast
1:29 PM 42.8 °F 37.5 °F 41.0 °F 93% 29.89 in 5.0 mi NNW 9.2 mph - N/A   Overcast
1:55 PM 42.1 °F 36.1 °F 39.9 °F 92% 29.92 in 5.0 mi NNW 10.4 mph - N/A   Overcast
2:31 PM 42.8 °F 38.0 °F 41.0 °F 93% 29.90 in 8.0 mi NNW 8.1 mph - N/A   Overcast
2:47 PM 42.8 °F 36.6 °F 39.2 °F 87% 29.91 in 8.0 mi NNW 11.5 mph - N/A   Overcast
2:55 PM 42.1 °F 36.1 °F 39.9 °F 92% 29.94 in 8.0 mi NNW 10.4 mph 19.6 mph N/A   Overcast
3:55 PM 39.0 °F 30.3 °F 37.9 °F 96% 29.96 in 5.0 mi NW 16.1 mph 23.0 mph N/A   Overcast
4:53 PM 35.6 °F 26.2 °F 33.8 °F 93% 29.98 in 2.5 mi NNW 15.0 mph - N/A   Overcast
4:55 PM 36.0 °F 27.1 °F 34.0 °F 93% 30.01 in 2.5 mi NW 13.8 mph - N/A   Overcast
5:11 PM 35.6 °F 26.6 °F 33.8 °F 93% 29.99 in 1.8 mi NW 13.8 mph 24.2 mph N/A   Overcast
5:45 PM 33.8 °F 24.8 °F 33.8 °F 100% 30.01 in 2.5 mi NW 12.7 mph 20.7 mph N/A   Overcast
5:55 PM 34.0 °F 23.8 °F 32.0 °F 92% 30.05 in 2.5 mi NW 16.1 mph 23.0 mph N/A   Overcast
6:11 PM 33.8 °F 24.8 °F 32.0 °F 93% 30.03 in 3.0 mi NW 12.7 mph 21.9 mph N/A   Overcast
6:19 PM 33.8 °F 24.3 °F 32.0 °F 93% 30.03 in 3.0 mi NW 13.8 mph 21.9 mph N/A   Overcast
6:32 PM 33.8 °F 24.8 °F 32.0 °F 93% 30.04 in 2.5 mi NNW 12.7 mph 19.6 mph N/A   Overcast
6:42 PM 33.8 °F 25.3 °F 32.0 °F 93% 30.04 in 3.0 mi NW 11.5 mph - N/A   Overcast
6:50 PM 33.8 °F 25.8 °F 32.0 °F 93% 30.05 in 2.5 mi NW 10.4 mph 19.6 mph N/A   Overcast
6:55 PM 33.1 °F 23.4 °F 30.9 °F 92% 30.09 in 2.5 mi NW 13.8 mph 19.6 mph N/A   Overcast
7:25 PM 32.0 °F 22.1 °F 30.2 °F 93% 30.06 in 2.0 mi NW 13.8 mph 20.7 mph N/A   Overcast
7:55 PM 32.0 °F 22.1 °F 30.9 °F 96% 30.10 in 2.5 mi NNW 13.8 mph - N/A   Overcast
8:45 PM 32.0 °F 23.0 °F 30.2 °F 93% 30.08 in 3.0 mi NW 11.5 mph - N/A   Overcast
8:55 PM 32.0 °F 23.6 °F 30.0 °F 92% 30.12 in 3.0 mi NW 10.4 mph 20.7 mph N/A   Overcast
9:55 PM 32.0 °F 23.6 °F 30.0 °F 92% 30.14 in 3.0 mi NNW 10.4 mph - N/A   Overcast
10:55 PM 30.9 °F 21.7 °F 28.0 °F 89% 30.16 in 5.0 mi NNW 11.5 mph 19.6 mph N/A   Overcast
11:55 PM 30.9 °F 22.2 °F 28.0 °F 89% 30.18 in 5.0 mi NNW 10.4 mph 19.6 mph N/A   Overcast